Year,Month,Day,Hour,Minute,Value (Times are PST for temperature in C)
2007,05,18,00,00,9.20
2007,05,18,00,01,9.20
2007,05,18,00,02,9.20
2007,05,18,00,03,9.20
2007,05,18,00,04,9.20
2007,05,18,00,05,9.20
2007,05,18,00,06,9.20
2007,05,18,00,07,9.20
2007,05,18,00,08,9.20
2007,05,18,00,09,9.20
2007,05,18,00,10,9.20
2007,05,18,00,11,9.20
2007,05,18,00,12,9.20
2007,05,18,00,13,9.20
2007,05,18,00,14,9.20
2007,05,18,00,15,9.20
2007,05,18,00,16,9.20
2007,05,18,00,17,9.20
2007,05,18,00,18,9.20
2007,05,18,00,19,9.20
2007,05,18,00,20,9.20
2007,05,18,00,21,9.20
2007,05,18,00,22,9.20
2007,05,18,00,23,9.10
2007,05,18,00,24,9.10
2007,05,18,00,25,9.10
2007,05,18,00,26,9.10
2007,05,18,00,27,9.10
2007,05,18,00,28,9.20
2007,05,18,00,29,9.20
2007,05,18,00,30,9.20
2007,05,18,00,31,9.20
2007,05,18,00,32,9.20
2007,05,18,00,33,9.20
2007,05,18,00,34,9.20
2007,05,18,00,35,9.30
2007,05,18,00,36,9.30
2007,05,18,00,37,9.30
2007,05,18,00,38,9.30
2007,05,18,00,39,9.30
2007,05,18,00,40,9.20
2007,05,18,00,41,9.20
2007,05,18,00,42,9.20
2007,05,18,00,43,9.20
2007,05,18,00,44,9.10
2007,05,18,00,45,9.10
2007,05,18,00,46,9.10
2007,05,18,00,47,9.10
2007,05,18,00,48,9.10
2007,05,18,00,49,9.00
2007,05,18,00,50,9.00
2007,05,18,00,51,9.00
2007,05,18,00,52,9.00
2007,05,18,00,53,9.00
2007,05,18,00,54,9.00
2007,05,18,00,55,9.00
2007,05,18,00,56,9.00
2007,05,18,00,57,9.00
2007,05,18,00,58,9.00
2007,05,18,00,59,8.90
2007,05,18,01,00,8.90
2007,05,18,01,01,8.90
2007,05,18,01,02,8.90
2007,05,18,01,03,8.90
2007,05,18,01,04,8.90
2007,05,18,01,05,8.80
2007,05,18,01,06,8.80
2007,05,18,01,07,8.80
2007,05,18,01,08,8.80
2007,05,18,01,09,8.80
2007,05,18,01,10,8.80
2007,05,18,01,11,8.80
2007,05,18,01,12,8.80
2007,05,18,01,13,8.80
2007,05,18,01,14,8.80
2007,05,18,01,15,8.80
2007,05,18,01,16,8.90
2007,05,18,01,17,8.90
2007,05,18,01,18,8.90
2007,05,18,01,19,9.00
2007,05,18,01,20,9.00
2007,05,18,01,21,9.00
2007,05,18,01,22,9.00
2007,05,18,01,23,9.00
2007,05,18,01,24,9.00
2007,05,18,01,25,9.00
2007,05,18,01,26,9.00
2007,05,18,01,27,9.00
2007,05,18,01,28,9.00
2007,05,18,01,29,9.00
2007,05,18,01,30,9.00
2007,05,18,01,31,8.90
2007,05,18,01,32,8.90
2007,05,18,01,33,8.90
2007,05,18,01,34,8.90
2007,05,18,01,35,8.90
2007,05,18,01,36,8.80
2007,05,18,01,37,8.80
2007,05,18,01,38,8.80
2007,05,18,01,39,8.80
2007,05,18,01,40,8.70
2007,05,18,01,41,8.70
2007,05,18,01,42,8.70
2007,05,18,01,43,8.60
2007,05,18,01,44,8.60
2007,05,18,01,45,8.50
2007,05,18,01,46,8.50
2007,05,18,01,47,8.40
2007,05,18,01,48,8.40
2007,05,18,01,49,8.30
2007,05,18,01,50,8.30
2007,05,18,01,51,8.30
2007,05,18,01,52,8.30
2007,05,18,01,53,8.30
2007,05,18,01,54,8.30
2007,05,18,01,55,8.30
2007,05,18,01,56,8.30
2007,05,18,01,57,8.20
2007,05,18,01,58,8.20
2007,05,18,01,59,8.20
2007,05,18,02,00,8.20
2007,05,18,02,01,8.20
2007,05,18,02,02,8.20
2007,05,18,02,03,8.20
2007,05,18,02,04,8.20
2007,05,18,02,05,8.20
2007,05,18,02,06,8.20
2007,05,18,02,07,8.20
2007,05,18,02,08,8.20
2007,05,18,02,09,8.20
2007,05,18,02,10,8.20
2007,05,18,02,11,8.20
2007,05,18,02,12,8.10
2007,05,18,02,13,8.10
2007,05,18,02,14,8.00
2007,05,18,02,15,8.00
2007,05,18,02,16,7.90
2007,05,18,02,17,7.90
2007,05,18,02,18,7.90
2007,05,18,02,19,7.90
2007,05,18,02,20,7.80
2007,05,18,02,21,7.80
2007,05,18,02,22,7.80
2007,05,18,02,23,7.80
2007,05,18,02,24,7.80
2007,05,18,02,25,7.80
2007,05,18,02,26,7.80
2007,05,18,02,27,7.80
2007,05,18,02,28,7.70
2007,05,18,02,29,7.70
2007,05,18,02,30,7.70
2007,05,18,02,31,7.70
2007,05,18,02,32,7.70
2007,05,18,02,33,7.60
2007,05,18,02,34,7.60
2007,05,18,02,35,7.60
2007,05,18,02,36,7.50
2007,05,18,02,37,7.50
2007,05,18,02,38,7.50
2007,05,18,02,39,7.40
2007,05,18,02,40,7.40
2007,05,18,02,41,7.40
2007,05,18,02,42,7.40
2007,05,18,02,43,7.40
2007,05,18,02,44,7.40
2007,05,18,02,45,7.40
2007,05,18,02,46,7.50
2007,05,18,02,47,7.50
2007,05,18,02,48,7.50
2007,05,18,02,49,7.50
2007,05,18,02,50,7.40
2007,05,18,02,51,7.40
2007,05,18,02,52,7.40
2007,05,18,02,53,7.40
2007,05,18,02,54,7.40
2007,05,18,02,55,7.30
2007,05,18,02,56,7.30
2007,05,18,02,57,7.30
2007,05,18,02,58,7.30
2007,05,18,02,59,7.20
2007,05,18,03,00,7.20
2007,05,18,03,01,7.20
2007,05,18,03,02,7.20
2007,05,18,03,03,7.20
2007,05,18,03,04,7.20
2007,05,18,03,05,7.20
2007,05,18,03,06,7.20
2007,05,18,03,07,7.20
2007,05,18,03,08,7.20
2007,05,18,03,09,7.20
2007,05,18,03,10,7.20
2007,05,18,03,11,7.20
2007,05,18,03,12,7.20
2007,05,18,03,13,7.20
2007,05,18,03,14,7.20
2007,05,18,03,15,7.20
2007,05,18,03,16,7.20
2007,05,18,03,17,7.20
2007,05,18,03,18,7.20
2007,05,18,03,19,7.20
2007,05,18,03,20,7.20
2007,05,18,03,21,7.20
2007,05,18,03,22,7.20
2007,05,18,03,23,7.20
2007,05,18,03,24,7.20
2007,05,18,03,25,7.30
2007,05,18,03,26,7.30
2007,05,18,03,27,7.30
2007,05,18,03,28,7.40
2007,05,18,03,29,7.40
2007,05,18,03,30,7.40
2007,05,18,03,31,7.40
2007,05,18,03,32,7.40
2007,05,18,03,33,7.40
2007,05,18,03,34,7.40
2007,05,18,03,35,7.30
2007,05,18,03,36,7.30
2007,05,18,03,37,7.30
2007,05,18,03,38,7.30
2007,05,18,03,39,7.30
2007,05,18,03,40,7.30
2007,05,18,03,41,7.30
2007,05,18,03,42,7.20
2007,05,18,03,43,7.20
2007,05,18,03,44,7.20
2007,05,18,03,45,7.20
2007,05,18,03,46,7.20
2007,05,18,03,47,7.20
2007,05,18,03,48,7.20
2007,05,18,03,49,7.20
2007,05,18,03,50,7.20
2007,05,18,03,51,7.20
2007,05,18,03,52,7.20
2007,05,18,03,53,7.20
2007,05,18,03,54,7.20
2007,05,18,03,55,7.10
2007,05,18,03,56,7.10
2007,05,18,03,57,7.10
2007,05,18,03,58,7.00
2007,05,18,03,59,7.00
2007,05,18,04,00,6.90
2007,05,18,04,01,6.90
2007,05,18,04,02,6.90
2007,05,18,04,03,6.80
2007,05,18,04,04,6.80
2007,05,18,04,05,6.80
2007,05,18,04,06,6.70
2007,05,18,04,07,6.70
2007,05,18,04,08,6.70
2007,05,18,04,09,6.70
2007,05,18,04,10,6.70
2007,05,18,04,11,6.70
2007,05,18,04,12,6.70
2007,05,18,04,13,6.70
2007,05,18,04,14,6.70
2007,05,18,04,15,6.70
2007,05,18,04,16,6.70
2007,05,18,04,17,6.70
2007,05,18,04,18,6.70
2007,05,18,04,19,6.70
2007,05,18,04,20,6.70
2007,05,18,04,21,6.70
2007,05,18,04,22,6.70
2007,05,18,04,23,6.70
2007,05,18,04,24,6.70
2007,05,18,04,25,6.70
2007,05,18,04,26,6.70
2007,05,18,04,27,6.70
2007,05,18,04,28,6.70
2007,05,18,04,29,6.70
2007,05,18,04,30,6.70
2007,05,18,04,31,6.70
2007,05,18,04,32,6.70
2007,05,18,04,33,6.60
2007,05,18,04,34,6.60
2007,05,18,04,35,6.50
2007,05,18,04,36,6.50
2007,05,18,04,37,6.40
2007,05,18,04,38,6.40
2007,05,18,04,39,6.30
2007,05,18,04,40,6.30
2007,05,18,04,41,6.30
2007,05,18,04,42,6.20
2007,05,18,04,43,6.20
2007,05,18,04,44,6.20
2007,05,18,04,45,6.20
2007,05,18,04,46,6.10
2007,05,18,04,47,6.10
2007,05,18,04,48,6.10
2007,05,18,04,49,6.10
2007,05,18,04,50,6.10
2007,05,18,04,51,6.10
2007,05,18,04,52,6.10
2007,05,18,04,53,6.10
2007,05,18,04,54,6.10
2007,05,18,04,55,6.00
2007,05,18,04,56,6.00
2007,05,18,04,57,6.00
2007,05,18,04,58,6.00
2007,05,18,04,59,6.00
2007,05,18,05,00,6.00
2007,05,18,05,01,6.00
2007,05,18,05,02,6.00
2007,05,18,05,03,6.00
2007,05,18,05,04,5.90
2007,05,18,05,05,5.90
2007,05,18,05,06,5.90
2007,05,18,05,07,5.90
2007,05,18,05,08,5.90
2007,05,18,05,09,5.90
2007,05,18,05,10,5.90
2007,05,18,05,11,5.90
2007,05,18,05,12,5.90
2007,05,18,05,13,5.90
2007,05,18,05,14,5.80
2007,05,18,05,15,5.90
2007,05,18,05,16,5.80
2007,05,18,05,17,5.80
2007,05,18,05,18,5.80
2007,05,18,05,19,5.80
2007,05,18,05,20,5.80
2007,05,18,05,21,5.80
2007,05,18,05,22,5.80
2007,05,18,05,23,5.80
2007,05,18,05,24,5.80
2007,05,18,05,25,5.80
2007,05,18,05,26,5.80
2007,05,18,05,27,5.80
2007,05,18,05,28,5.80
2007,05,18,05,29,5.70
2007,05,18,05,30,5.70
2007,05,18,05,31,5.70
2007,05,18,05,32,5.70
2007,05,18,05,33,5.70
2007,05,18,05,34,5.70
2007,05,18,05,35,5.70
2007,05,18,05,36,5.70
2007,05,18,05,37,5.70
2007,05,18,05,38,5.70
2007,05,18,05,39,5.70
2007,05,18,05,40,5.70
2007,05,18,05,41,5.70
2007,05,18,05,42,5.70
2007,05,18,05,43,5.70
2007,05,18,05,44,5.70
2007,05,18,05,45,5.70
2007,05,18,05,46,5.70
2007,05,18,05,47,5.60
2007,05,18,05,48,5.60
2007,05,18,05,49,5.60
2007,05,18,05,50,5.60
2007,05,18,05,51,5.60
2007,05,18,05,52,5.60
2007,05,18,05,53,5.60
2007,05,18,05,54,5.70
2007,05,18,05,55,5.70
2007,05,18,05,56,5.70
2007,05,18,05,57,5.70
2007,05,18,05,58,5.80
2007,05,18,05,59,5.80
2007,05,18,06,00,5.80
2007,05,18,06,01,5.90
2007,05,18,06,02,5.90
2007,05,18,06,03,5.90
2007,05,18,06,04,5.90
2007,05,18,06,05,5.90
2007,05,18,06,06,5.90
2007,05,18,06,07,5.90
2007,05,18,06,08,5.90
2007,05,18,06,09,5.90
2007,05,18,06,10,5.90
2007,05,18,06,11,5.90
2007,05,18,06,12,5.90
2007,05,18,06,13,6.00
2007,05,18,06,14,6.00
2007,05,18,06,15,6.00
2007,05,18,06,16,6.00
2007,05,18,06,17,6.00
2007,05,18,06,18,6.00
2007,05,18,06,19,6.10
2007,05,18,06,20,6.10
2007,05,18,06,21,6.10
2007,05,18,06,22,6.10
2007,05,18,06,23,6.20
2007,05,18,06,24,6.20
2007,05,18,06,25,6.20
2007,05,18,06,26,6.20
2007,05,18,06,27,6.20
2007,05,18,06,28,6.30
2007,05,18,06,29,6.30
2007,05,18,06,30,6.30
2007,05,18,06,31,6.30
2007,05,18,06,32,6.30
2007,05,18,06,33,6.30
2007,05,18,06,34,6.40
2007,05,18,06,35,6.40
2007,05,18,06,36,6.50
2007,05,18,06,37,6.50
2007,05,18,06,38,6.60
2007,05,18,06,39,6.60
2007,05,18,06,40,6.70
2007,05,18,06,41,6.70
2007,05,18,06,42,6.80
2007,05,18,06,43,6.80
2007,05,18,06,44,6.80
2007,05,18,06,45,6.90
2007,05,18,06,46,7.00
2007,05,18,06,47,7.10
2007,05,18,06,48,7.20
2007,05,18,06,49,7.20
2007,05,18,06,50,7.20
2007,05,18,06,51,7.30
2007,05,18,06,52,7.30
2007,05,18,06,53,7.40
2007,05,18,06,54,7.40
2007,05,18,06,55,7.50
2007,05,18,06,56,7.50
2007,05,18,06,57,7.60
2007,05,18,06,58,7.60
2007,05,18,06,59,7.70
2007,05,18,07,00,7.80
2007,05,18,07,01,7.80
2007,05,18,07,02,7.90
2007,05,18,07,03,8.00
2007,05,18,07,04,8.10
2007,05,18,07,05,8.10
2007,05,18,07,06,8.20
2007,05,18,07,07,8.30
2007,05,18,07,08,8.30
2007,05,18,07,09,8.40
2007,05,18,07,10,8.40
2007,05,18,07,11,8.50
2007,05,18,07,12,8.50
2007,05,18,07,13,8.60
2007,05,18,07,14,8.60
2007,05,18,07,15,8.60
2007,05,18,07,16,8.70
2007,05,18,07,17,8.70
2007,05,18,07,18,8.70
2007,05,18,07,19,8.80
2007,05,18,07,20,8.80
2007,05,18,07,21,8.80
2007,05,18,07,22,8.90
2007,05,18,07,23,9.00
2007,05,18,07,24,9.00
2007,05,18,07,25,9.10
2007,05,18,07,26,9.20
2007,05,18,07,27,9.20
2007,05,18,07,28,9.30
2007,05,18,07,29,9.30
2007,05,18,07,30,9.40
2007,05,18,07,31,9.40
2007,05,18,07,32,9.50
2007,05,18,07,33,9.60
2007,05,18,07,34,9.70
2007,05,18,07,35,9.80
2007,05,18,07,36,9.90
2007,05,18,07,37,10.00
2007,05,18,07,38,10.10
2007,05,18,07,39,10.20
2007,05,18,07,40,10.30
2007,05,18,07,41,10.40
2007,05,18,07,42,10.50
2007,05,18,07,43,10.60
2007,05,18,07,44,10.60
2007,05,18,07,45,10.70
2007,05,18,07,46,10.70
2007,05,18,07,47,10.80
2007,05,18,07,48,10.80
2007,05,18,07,49,10.90
2007,05,18,07,50,10.90
2007,05,18,07,51,11.00
2007,05,18,07,52,11.00
2007,05,18,07,53,11.10
2007,05,18,07,54,11.10
2007,05,18,07,55,11.20
2007,05,18,07,56,11.30
2007,05,18,07,57,11.40
2007,05,18,07,58,11.40
2007,05,18,07,59,11.40
2007,05,18,08,00,11.50
2007,05,18,08,01,11.60
2007,05,18,08,02,11.60
2007,05,18,08,03,11.60
2007,05,18,08,04,11.60
2007,05,18,08,05,11.60
2007,05,18,08,06,11.60
2007,05,18,08,07,11.60
2007,05,18,08,08,11.70
2007,05,18,08,09,11.70
2007,05,18,08,10,11.70
2007,05,18,08,11,11.80
2007,05,18,08,12,11.80
2007,05,18,08,13,11.90
2007,05,18,08,14,11.90
2007,05,18,08,15,12.00
2007,05,18,08,16,12.00
2007,05,18,08,17,12.10
2007,05,18,08,18,12.10
2007,05,18,08,19,12.10
2007,05,18,08,20,12.10
2007,05,18,08,21,12.10
2007,05,18,08,22,12.10
2007,05,18,08,23,12.10
2007,05,18,08,24,12.10
2007,05,18,08,25,12.20
2007,05,18,08,26,12.20
2007,05,18,08,27,12.20
2007,05,18,08,28,12.20
2007,05,18,08,29,12.20
2007,05,18,08,30,12.30
2007,05,18,08,31,12.30
2007,05,18,08,32,12.30
2007,05,18,08,33,12.30
2007,05,18,08,34,12.40
2007,05,18,08,35,12.40
2007,05,18,08,36,12.40
2007,05,18,08,37,12.40
2007,05,18,08,38,12.50
2007,05,18,08,39,12.50
2007,05,18,08,40,12.40
2007,05,18,08,41,12.40
2007,05,18,08,42,12.40
2007,05,18,08,43,12.40
2007,05,18,08,44,12.50
2007,05,18,08,45,12.50
2007,05,18,08,46,12.40
2007,05,18,08,47,12.30
2007,05,18,08,48,12.40
2007,05,18,08,49,12.40
2007,05,18,08,50,12.50
2007,05,18,08,51,12.60
2007,05,18,08,52,12.60
2007,05,18,08,53,12.70
2007,05,18,08,54,12.80
2007,05,18,08,55,12.80
2007,05,18,08,56,12.90
2007,05,18,08,57,12.90
2007,05,18,08,58,12.90
2007,05,18,08,59,12.90
2007,05,18,09,00,12.90
2007,05,18,09,01,12.90
2007,05,18,09,02,12.90
2007,05,18,09,03,12.90
2007,05,18,09,04,12.90
2007,05,18,09,05,12.80
2007,05,18,09,06,12.70
2007,05,18,09,07,12.60
2007,05,18,09,08,12.60
2007,05,18,09,09,12.50
2007,05,18,09,10,12.40
2007,05,18,09,11,12.50
2007,05,18,09,12,12.60
2007,05,18,09,13,12.60
2007,05,18,09,14,12.60
2007,05,18,09,15,12.50
2007,05,18,09,16,12.50
2007,05,18,09,17,12.40
2007,05,18,09,18,12.30
2007,05,18,09,19,12.30
2007,05,18,09,20,12.30
2007,05,18,09,21,12.20
2007,05,18,09,22,12.20
2007,05,18,09,23,12.30
2007,05,18,09,24,12.30
2007,05,18,09,25,12.30
2007,05,18,09,26,12.30
2007,05,18,09,27,12.20
2007,05,18,09,28,12.20
2007,05,18,09,29,12.20
2007,05,18,09,30,12.20
2007,05,18,09,31,12.20
2007,05,18,09,32,12.30
2007,05,18,09,33,12.40
2007,05,18,09,34,12.40
2007,05,18,09,35,12.50
2007,05,18,09,36,12.60
2007,05,18,09,37,12.70
2007,05,18,09,38,12.80
2007,05,18,09,39,12.80
2007,05,18,09,40,12.80
2007,05,18,09,41,12.90
2007,05,18,09,42,12.90
2007,05,18,09,43,13.00
2007,05,18,09,44,13.00
2007,05,18,09,45,13.10
2007,05,18,09,46,13.10
2007,05,18,09,47,13.10
2007,05,18,09,48,13.10
2007,05,18,09,49,13.10
2007,05,18,09,50,13.10
2007,05,18,09,51,13.10
2007,05,18,09,52,13.10
2007,05,18,09,53,13.20
2007,05,18,09,54,13.20
2007,05,18,09,55,13.20
2007,05,18,09,56,13.20
2007,05,18,09,57,13.20
2007,05,18,09,58,13.30
2007,05,18,09,59,13.30
2007,05,18,10,00,13.30
2007,05,18,10,01,13.30
2007,05,18,10,02,13.40
2007,05,18,10,03,13.50
2007,05,18,10,04,13.50
2007,05,18,10,05,13.60
2007,05,18,10,06,13.50
2007,05,18,10,07,13.50
2007,05,18,10,08,13.60
2007,05,18,10,09,13.60
2007,05,18,10,10,13.60
2007,05,18,10,11,13.70
2007,05,18,10,12,13.60
2007,05,18,10,13,13.50
2007,05,18,10,14,13.50
2007,05,18,10,15,13.50
2007,05,18,10,16,13.50
2007,05,18,10,17,13.50
2007,05,18,10,18,13.50
2007,05,18,10,19,13.50
2007,05,18,10,20,13.50
2007,05,18,10,21,13.50
2007,05,18,10,22,13.50
2007,05,18,10,23,13.50
2007,05,18,10,24,13.50
2007,05,18,10,25,13.60
2007,05,18,10,26,13.60
2007,05,18,10,27,13.60
2007,05,18,10,28,13.70
2007,05,18,10,29,13.70
2007,05,18,10,30,13.60
2007,05,18,10,31,13.50
2007,05,18,10,32,13.40
2007,05,18,10,33,13.30
2007,05,18,10,34,13.30
2007,05,18,10,35,13.40
2007,05,18,10,36,13.40
2007,05,18,10,37,13.50
2007,05,18,10,38,13.60
2007,05,18,10,39,13.60
2007,05,18,10,40,13.50
2007,05,18,10,41,13.50
2007,05,18,10,42,13.50
2007,05,18,10,43,13.50
2007,05,18,10,44,13.50
2007,05,18,10,45,13.50
2007,05,18,10,46,13.50
2007,05,18,10,47,13.60
2007,05,18,10,48,13.80
2007,05,18,10,49,13.90
2007,05,18,10,50,14.10
2007,05,18,10,51,14.20
2007,05,18,10,52,14.30
2007,05,18,10,53,14.40
2007,05,18,10,54,14.50
2007,05,18,10,55,14.50
2007,05,18,10,56,14.60
2007,05,18,10,57,14.60
2007,05,18,10,58,14.70
2007,05,18,10,59,14.70
2007,05,18,11,00,14.70
2007,05,18,11,01,14.70
2007,05,18,11,02,14.70
2007,05,18,11,03,14.70
2007,05,18,11,04,14.70
2007,05,18,11,05,14.70
2007,05,18,11,06,14.70
2007,05,18,11,07,14.70
2007,05,18,11,08,14.70
2007,05,18,11,09,14.80
2007,05,18,11,10,15.00
2007,05,18,11,11,15.00
2007,05,18,11,12,15.00
2007,05,18,11,13,15.10
2007,05,18,11,14,15.30
2007,05,18,11,15,15.40
2007,05,18,11,16,15.40
2007,05,18,11,17,15.40
2007,05,18,11,18,15.40
2007,05,18,11,19,15.30
2007,05,18,11,20,15.30
2007,05,18,11,21,15.30
2007,05,18,11,22,15.30
2007,05,18,11,23,15.20
2007,05,18,11,24,15.00
2007,05,18,11,25,15.00
2007,05,18,11,26,15.10
2007,05,18,11,27,15.10
2007,05,18,11,28,15.10
2007,05,18,11,29,15.00
2007,05,18,11,30,15.00
2007,05,18,11,31,15.00
2007,05,18,11,32,15.00
2007,05,18,11,33,15.00
2007,05,18,11,34,15.00
2007,05,18,11,35,15.00
2007,05,18,11,36,15.00
2007,05,18,11,37,15.20
2007,05,18,11,38,15.20
2007,05,18,11,39,15.20
2007,05,18,11,40,15.30
2007,05,18,11,41,15.40
2007,05,18,11,42,15.60
2007,05,18,11,43,15.60
2007,05,18,11,44,15.50
2007,05,18,11,45,15.40
2007,05,18,11,46,15.40
2007,05,18,11,47,15.40
2007,05,18,11,48,15.50
2007,05,18,11,49,15.40
2007,05,18,11,50,15.30
2007,05,18,11,51,15.40
2007,05,18,11,52,15.40
2007,05,18,11,53,15.30
2007,05,18,11,54,15.30
2007,05,18,11,55,15.30
2007,05,18,11,56,15.30
2007,05,18,11,57,15.30
2007,05,18,11,58,15.30
2007,05,18,11,59,15.40
2007,05,18,12,00,15.40
2007,05,18,12,01,15.40
2007,05,18,12,02,15.40
2007,05,18,12,03,15.40
2007,05,18,12,04,15.40
2007,05,18,12,05,15.40
2007,05,18,12,06,15.30
2007,05,18,12,07,15.30
2007,05,18,12,08,15.20
2007,05,18,12,09,15.20
2007,05,18,12,10,15.20
2007,05,18,12,11,15.20
2007,05,18,12,12,15.40
2007,05,18,12,13,15.40
2007,05,18,12,14,15.50
2007,05,18,12,15,15.50
2007,05,18,12,16,15.70
2007,05,18,12,17,15.70
2007,05,18,12,18,15.50
2007,05,18,12,19,15.40
2007,05,18,12,20,15.30
2007,05,18,12,21,15.40
2007,05,18,12,22,15.50
2007,05,18,12,23,15.60
2007,05,18,12,24,15.70
2007,05,18,12,25,15.80
2007,05,18,12,26,15.70
2007,05,18,12,27,15.70
2007,05,18,12,28,15.70
2007,05,18,12,29,15.70
2007,05,18,12,30,15.80
2007,05,18,12,31,15.80
2007,05,18,12,32,15.80
2007,05,18,12,33,15.80
2007,05,18,12,34,15.80
2007,05,18,12,35,15.70
2007,05,18,12,36,15.70
2007,05,18,12,37,15.70
2007,05,18,12,38,15.60
2007,05,18,12,39,15.40
2007,05,18,12,40,15.10
2007,05,18,12,41,15.00
2007,05,18,12,42,14.80
2007,05,18,12,43,14.70
2007,05,18,12,44,14.80
2007,05,18,12,45,15.00
2007,05,18,12,46,15.00
2007,05,18,12,47,15.20
2007,05,18,12,48,15.40
2007,05,18,12,49,15.70
2007,05,18,12,50,15.80
2007,05,18,12,51,15.80
2007,05,18,12,52,15.80
2007,05,18,12,53,15.90
2007,05,18,12,54,16.00
2007,05,18,12,55,16.10
2007,05,18,12,56,16.10
2007,05,18,12,57,16.20
2007,05,18,12,58,16.30
2007,05,18,12,59,16.30
2007,05,18,13,00,16.30
2007,05,18,13,01,16.40
2007,05,18,13,02,16.40
2007,05,18,13,03,16.40
2007,05,18,13,04,16.40
2007,05,18,13,05,16.50
2007,05,18,13,06,16.50
2007,05,18,13,07,16.60
2007,05,18,13,08,16.60
2007,05,18,13,09,16.70
2007,05,18,13,10,16.70
2007,05,18,13,11,16.70
2007,05,18,13,12,16.70
2007,05,18,13,13,16.70
2007,05,18,13,14,16.80
2007,05,18,13,15,16.70
2007,05,18,13,16,16.60
2007,05,18,13,17,16.50
2007,05,18,13,18,16.40
2007,05,18,13,19,16.30
2007,05,18,13,20,16.30
2007,05,18,13,21,16.20
2007,05,18,13,22,16.10
2007,05,18,13,23,15.80
2007,05,18,13,24,15.60
2007,05,18,13,25,15.30
2007,05,18,13,26,15.10
2007,05,18,13,27,15.00
2007,05,18,13,28,15.00
2007,05,18,13,29,15.00
2007,05,18,13,30,15.00
2007,05,18,13,31,15.00
2007,05,18,13,32,15.00
2007,05,18,13,33,15.00
2007,05,18,13,34,15.00
2007,05,18,13,35,15.00
2007,05,18,13,36,15.00
2007,05,18,13,37,15.00
2007,05,18,13,38,15.00
2007,05,18,13,39,15.00
2007,05,18,13,40,15.00
2007,05,18,13,41,15.00
2007,05,18,13,42,15.00
2007,05,18,13,43,14.90
2007,05,18,13,44,14.80
2007,05,18,13,45,14.60
2007,05,18,13,46,14.40
2007,05,18,13,47,14.30
2007,05,18,13,48,14.30
2007,05,18,13,49,14.30
2007,05,18,13,50,14.30
2007,05,18,13,51,14.40
2007,05,18,13,52,14.40
2007,05,18,13,53,14.30
2007,05,18,13,54,14.30
2007,05,18,13,55,14.20
2007,05,18,13,56,14.10
2007,05,18,13,57,14.00
2007,05,18,13,58,13.90
2007,05,18,13,59,13.70
2007,05,18,14,00,13.70
2007,05,18,14,01,13.70
2007,05,18,14,02,13.80
2007,05,18,14,03,13.80
2007,05,18,14,04,13.80
2007,05,18,14,05,13.80
2007,05,18,14,06,13.90
2007,05,18,14,07,13.90
2007,05,18,14,08,13.90
2007,05,18,14,09,14.00
2007,05,18,14,10,14.10
2007,05,18,14,11,14.20
2007,05,18,14,12,14.20
2007,05,18,14,13,14.30
2007,05,18,14,14,14.50
2007,05,18,14,15,14.60
2007,05,18,14,16,14.70
2007,05,18,14,17,14.70
2007,05,18,14,18,14.80
2007,05,18,14,19,14.90
2007,05,18,14,20,15.00
2007,05,18,14,21,15.00
2007,05,18,14,22,15.10
2007,05,18,14,23,15.10
2007,05,18,14,24,15.20
2007,05,18,14,25,15.30
2007,05,18,14,26,15.40
2007,05,18,14,27,15.40
2007,05,18,14,28,15.40
2007,05,18,14,29,15.50
2007,05,18,14,30,15.60
2007,05,18,14,31,15.50
2007,05,18,14,32,15.60
2007,05,18,14,33,15.60
2007,05,18,14,34,15.70
2007,05,18,14,35,15.80
2007,05,18,14,36,16.00
2007,05,18,14,37,16.20
2007,05,18,14,38,16.30
2007,05,18,14,39,16.50
2007,05,18,14,40,16.50
2007,05,18,14,41,16.70
2007,05,18,14,42,16.60
2007,05,18,14,43,16.60
2007,05,18,14,44,16.60
2007,05,18,14,45,16.50
2007,05,18,14,46,16.40
2007,05,18,14,47,16.40
2007,05,18,14,48,16.30
2007,05,18,14,49,16.30
2007,05,18,14,50,16.20
2007,05,18,14,51,16.10
2007,05,18,14,52,16.10
2007,05,18,14,53,16.00
2007,05,18,14,54,15.90
2007,05,18,14,55,15.80
2007,05,18,14,56,15.70
2007,05,18,14,57,15.60
2007,05,18,14,58,15.60
2007,05,18,14,59,15.60
2007,05,18,15,00,15.60
2007,05,18,15,01,15.50
2007,05,18,15,02,15.30
2007,05,18,15,03,15.30
2007,05,18,15,04,15.20
2007,05,18,15,05,15.10
2007,05,18,15,06,15.10
2007,05,18,15,07,15.10
2007,05,18,15,08,15.10
2007,05,18,15,09,15.10
2007,05,18,15,10,15.10
2007,05,18,15,11,15.20
2007,05,18,15,12,15.10
2007,05,18,15,13,15.00
2007,05,18,15,14,15.00
2007,05,18,15,15,15.00
2007,05,18,15,16,15.10
2007,05,18,15,17,15.20
2007,05,18,15,18,15.30
2007,05,18,15,19,15.40
2007,05,18,15,20,15.50
2007,05,18,15,21,15.60
2007,05,18,15,22,15.60
2007,05,18,15,23,15.70
2007,05,18,15,24,15.60
2007,05,18,15,25,15.60
2007,05,18,15,26,15.60
2007,05,18,15,27,15.60
2007,05,18,15,28,15.70
2007,05,18,15,29,15.80
2007,05,18,15,30,15.70
2007,05,18,15,31,15.70
2007,05,18,15,32,15.70
2007,05,18,15,33,15.70
2007,05,18,15,34,15.60
2007,05,18,15,35,15.60
2007,05,18,15,36,15.60
2007,05,18,15,37,15.50
2007,05,18,15,38,15.30
2007,05,18,15,39,15.30
2007,05,18,15,40,15.20
2007,05,18,15,41,15.20
2007,05,18,15,42,15.10
2007,05,18,15,43,15.00
2007,05,18,15,44,15.00
2007,05,18,15,45,15.00
2007,05,18,15,46,15.00
2007,05,18,15,47,14.70
2007,05,18,15,48,14.50
2007,05,18,15,49,14.50
2007,05,18,15,50,14.50
2007,05,18,15,51,14.50
2007,05,18,15,52,14.60
2007,05,18,15,53,14.50
2007,05,18,15,54,14.50
2007,05,18,15,55,14.30
2007,05,18,15,56,14.20
2007,05,18,15,57,14.00
2007,05,18,15,58,14.00
2007,05,18,15,59,13.90
2007,05,18,16,00,13.90
2007,05,18,16,01,13.90
2007,05,18,16,02,13.90
2007,05,18,16,03,14.00
2007,05,18,16,04,14.00
2007,05,18,16,05,14.10
2007,05,18,16,06,14.10
2007,05,18,16,07,14.00
2007,05,18,16,08,13.90
2007,05,18,16,09,13.80
2007,05,18,16,10,13.70
2007,05,18,16,11,13.60
2007,05,18,16,12,13.50
2007,05,18,16,13,13.40
2007,05,18,16,14,13.40
2007,05,18,16,15,13.40
2007,05,18,16,16,13.40
2007,05,18,16,17,13.30
2007,05,18,16,18,13.30
2007,05,18,16,19,13.30
2007,05,18,16,20,13.30
2007,05,18,16,21,13.40
2007,05,18,16,22,13.50
2007,05,18,16,23,13.60
2007,05,18,16,24,13.60
2007,05,18,16,25,13.60
2007,05,18,16,26,13.70
2007,05,18,16,27,13.80
2007,05,18,16,28,13.80
2007,05,18,16,29,13.80
2007,05,18,16,30,13.90
2007,05,18,16,31,13.90
2007,05,18,16,32,14.00
2007,05,18,16,33,14.00
2007,05,18,16,34,14.00
2007,05,18,16,35,14.10
2007,05,18,16,36,14.10
2007,05,18,16,37,14.20
2007,05,18,16,38,14.30
2007,05,18,16,39,14.40
2007,05,18,16,40,14.50
2007,05,18,16,41,14.50
2007,05,18,16,42,14.60
2007,05,18,16,43,14.70
2007,05,18,16,44,14.70
2007,05,18,16,45,14.70
2007,05,18,16,46,14.60
2007,05,18,16,47,14.60
2007,05,18,16,48,14.60
2007,05,18,16,49,14.60
2007,05,18,16,50,14.60
2007,05,18,16,51,14.60
2007,05,18,16,52,14.60
2007,05,18,16,53,14.60
2007,05,18,16,54,14.60
2007,05,18,16,55,14.60
2007,05,18,16,56,14.60
2007,05,18,16,57,14.60
2007,05,18,16,58,14.70
2007,05,18,16,59,14.70
2007,05,18,17,00,14.80
2007,05,18,17,01,14.80
2007,05,18,17,02,14.80
2007,05,18,17,03,14.90
2007,05,18,17,04,15.00
2007,05,18,17,05,15.00
2007,05,18,17,06,15.00
2007,05,18,17,07,15.00
2007,05,18,17,08,15.00
2007,05,18,17,09,15.00
2007,05,18,17,10,15.00
2007,05,18,17,11,15.00
2007,05,18,17,12,15.00
2007,05,18,17,13,15.00
2007,05,18,17,14,15.00
2007,05,18,17,15,15.00
2007,05,18,17,16,15.00
2007,05,18,17,17,15.00
2007,05,18,17,18,15.00
2007,05,18,17,19,15.00
2007,05,18,17,20,15.00
2007,05,18,17,21,15.00
2007,05,18,17,22,14.90
2007,05,18,17,23,14.80
2007,05,18,17,24,14.80
2007,05,18,17,25,14.80
2007,05,18,17,26,14.70
2007,05,18,17,27,14.70
2007,05,18,17,28,14.60
2007,05,18,17,29,14.60
2007,05,18,17,30,14.60
2007,05,18,17,31,14.60
2007,05,18,17,32,14.60
2007,05,18,17,33,14.60
2007,05,18,17,34,14.60
2007,05,18,17,35,14.60
2007,05,18,17,36,14.60
2007,05,18,17,37,14.60
2007,05,18,17,38,14.50
2007,05,18,17,39,14.50